| time (UTC) | temp F | wind direction | speed MPH | gust MPH | rain 1hr in | rain 24hr in | rain mn in | humidity % | barometer mb |
| 20260503233021 | 58 | 229 | 2.0 | 15.0 | 0.00 | 0.00 | 0.00 | 46 | 1012.3 |
| 20260503231616 | 58 | 215 | 7.0 | 17.0 | 0.00 | 0.00 | 0.00 | 45 | 1012.3 |
| 20260503230038 | 59 | 223 | 5.0 | 19.0 | 0.00 | 0.00 | 0.00 | 43 | 1012.4 |
| 20260503224630 | 60 | 194 | 5.0 | 14.0 | 0.00 | 0.00 | 0.00 | 42 | 1012.4 |
| 20260503223048 | 60 | 309 | 7.0 | 16.0 | 0.00 | 0.00 | 0.00 | 41 | 1012.5 |
| 20260503221515 | 59 | 180 | 6.0 | 16.0 | 0.00 | 0.00 | 0.00 | 42 | 1012.5 |
| 20260503220106 | 60 | 178 | 6.0 | 16.0 | 0.00 | 0.00 | 0.00 | 42 | 1012.6 |
| 20260503214531 | 60 | 213 | 4.0 | 15.0 | 0.00 | 0.00 | 0.00 | 43 | 1012.6 |
| 20260503213135 | 61 | 232 | 6.0 | 16.0 | 0.00 | 0.00 | 0.00 | 43 | 1012.4 |
| 20260503211616 | 60 | 226 | 4.0 | 18.0 | 0.00 | 0.00 | 0.00 | 42 | 1012.4 |
| 20260503210016 | 61 | 202 | 4.0 | 13.0 | 0.00 | 0.00 | 0.00 | 42 | 1012.5 |
| 20260503204626 | 61 | 269 | 0.0 | 17.0 | 0.00 | 0.00 | 0.00 | 40 | 1012.6 |
| 20260503203036 | 60 | 238 | 9.0 | 24.0 | 0.00 | 0.00 | 0.00 | 41 | 1012.7 |
| 20260503201632 | 61 | 223 | 6.0 | 22.0 | 0.00 | 0.00 | 0.00 | 43 | 1012.9 |
| 20260503200046 | 60 | 223 | 7.0 | 15.0 | 0.00 | 0.00 | 0.00 | 42 | 1013.1 |
| 20260503194509 | 61 | 262 | 3.0 | 16.0 | 0.00 | 0.00 | 0.00 | 43 | 1013.2 |
| 20260503193058 | 61 | 243 | 3.0 | 19.0 | 0.00 | 0.00 | 0.00 | 40 | 1013.6 |
| 20260503191516 | 61 | 246 | 9.0 | 18.0 | 0.00 | 0.00 | 0.00 | 41 | 1013.8 |
| 20260503184530 | 60 | 250 | 12.0 | 23.0 | 0.00 | 0.00 | 0.00 | 38 | 1014.2 |
| 20260503183123 | 60 | 254 | 8.0 | 22.0 | 0.00 | 0.00 | 0.00 | 38 | 1014.3 |
| 20260503181550 | 59 | 248 | 10.0 | 22.0 | 0.00 | 0.00 | 0.00 | 37 | 1014.5 |
| 20260503180134 | 59 | 275 | 7.0 | 20.0 | 0.00 | 0.00 | 0.00 | 41 | 1014.8 |
| 20260503174601 | 60 | 265 | 8.0 | 19.0 | 0.00 | 0.00 | 0.00 | 43 | 1014.9 |
| 20260503173005 | 59 | 217 | 9.0 | 23.0 | 0.00 | 0.00 | 0.00 | 40 | 1015.0 |
| 20260503171603 | 59 | 246 | 10.0 | 23.0 | 0.00 | 0.00 | 0.00 | 41 | 1015.1 |
| 20260503130123 | 47 | 281 | 4.0 | 11.0 | 0.00 | 0.00 | 0.00 | 49 | 1017.2 |
| 20260503100121 | 39 | 209 | 0.0 | 0.0 | 0.00 | 0.01 | 0.00 | 77 | 1016.4 |
| 20260503081614 | 35 | 219 | 0.0 | 0.0 | 0.00 | 0.04 | 0.00 | 85 | 1016.8 |
| 20260503071517 | 35 | 302 | 0.0 | 0.0 | 0.00 | 0.04 | 0.00 | 85 | 1016.8 |
| 20260503070116 | 35 | 302 | 0.0 | 0.0 | 0.00 | 0.04 | 0.00 | 86 | 1016.8 |
| 20260503054605 | 33 | 298 | 0.0 | 0.0 | 0.00 | 0.04 | 0.00 | 90 | 1017.3 |
| 20260503053026 | 33 | 298 | 0.0 | 0.0 | 0.00 | 0.04 | 0.00 | 89 | 1017.4 |
| 20260503051612 | 34 | 298 | 0.0 | 0.0 | 0.00 | 0.04 | 0.00 | 89 | 1017.4 |
| 20260503050025 | 34 | 298 | 0.0 | 0.0 | 0.00 | 0.04 | 0.00 | 89 | 1017.5 |
| 20260503044613 | 34 | 298 | 0.0 | 0.0 | 0.00 | 0.04 | 0.00 | 88 | 1017.6 |
| 20260503043031 | 35 | 298 | 0.0 | 0.0 | 0.00 | 0.04 | 0.00 | 87 | 1017.5 |
| 20260503041628 | 36 | 298 | 0.0 | 0.0 | 0.00 | 0.04 | 0.00 | 86 | 1017.7 |
| 20260503040049 | 37 | 298 | 0.0 | 0.0 | 0.00 | 0.04 | 0.00 | 85 | 1017.8 |
| 20260503034634 | 37 | 298 | 0.0 | 0.0 | 0.00 | 0.04 | 0.04 | 85 | 1017.8 |
| 20260503033059 | 38 | 298 | 0.0 | 0.0 | 0.00 | 0.04 | 0.04 | 84 | 1017.8 |
| 20260503031519 | 38 | 298 | 0.0 | 0.0 | 0.00 | 0.04 | 0.04 | 84 | 1017.8 |
| 20260503030114 | 39 | 298 | 0.0 | 0.0 | 0.00 | 0.04 | 0.04 | 84 | 1017.9 |
| 20260503024537 | 39 | 298 | 0.0 | 0.0 | 0.00 | 0.04 | 0.04 | 84 | 1018.2 |
| 20260503023120 | 39 | 298 | 0.0 | 0.0 | 0.00 | 0.04 | 0.04 | 83 | 1018.3 |
| 20260503021543 | 39 | 298 | 0.0 | 0.0 | 0.00 | 0.04 | 0.04 | 81 | 1018.3 |
| 20260503020003 | 39 | 298 | 0.0 | 0.0 | 0.00 | 0.04 | 0.04 | 80 | 1018.2 |
| 20260503014628 | 39 | 298 | 0.0 | 0.0 | 0.00 | 0.04 | 0.04 | 79 | 1018.2 |
| 20260503013032 | 40 | 298 | 0.0 | 0.0 | 0.00 | 0.04 | 0.04 | 77 | 1018.2 |
| 20260503011635 | 40 | 298 | 0.0 | 0.0 | 0.00 | 0.04 | 0.04 | 78 | 1018.2 |
| 20260503010037 | 41 | 298 | 0.0 | 0.0 | 0.00 | 0.04 | 0.04 | 77 | 1018.2 |
| 20260503004633 | 41 | 298 | 0.0 | 0.0 | 0.00 | 0.04 | 0.04 | 76 | 1018.2 |
| 20260503003102 | 41 | 298 | 0.0 | 0.0 | 0.00 | 0.04 | 0.04 | 73 | 1018.1 |
| 20260503001521 | 41 | 298 | 0.0 | 0.0 | 0.00 | 0.04 | 0.04 | 70 | 1018.0 |
| 20260503000118 | 42 | 298 | 0.0 | 3.0 | 0.00 | 0.04 | 0.04 | 71 | 1018.0 |
| 20260502234601 | 42 | 330 | 1.0 | 5.0 | 0.00 | 0.04 | 0.04 | 69 | 1017.9 |